This is the latest recevied weather packets stored in our database for station/object W0JRT-6. If no packets are shown the sender has not sent any weather packets the latest 10 day(s).
| Time | Temp. | Humidity | Pressure | Rain* | Wind** | Luminosity | Snow |
|---|---|---|---|---|---|---|---|
| 1777939800 | 26.11° C | 46% | 995.3 hPa | 0 mm | - | - | - |
| 1777939212 | 26.11° C | 46% | 995.2 hPa | 0 mm | - | - | - |
| 1777938612 | 26.67° C | 44% | 995.1 hPa | 0 mm | - | - | - |
| 1777937999 | 26.67° C | 42% | 995.1 hPa | 0 mm | - | - | - |
| 1777937403 | 26.67° C | 40% | 995 hPa | 0 mm | - | - | - |
| 1777936807 | 26.67° C | 41% | 994.8 hPa | 0 mm | - | - | - |
| 1777936199 | 27.22° C | 38% | 994.8 hPa | 0 mm | - | - | - |
| 1777935603 | 27.22° C | 38% | 994.6 hPa | 0 mm | - | - | - |
| 1777935002 | 27.78° C | 39% | 994.6 hPa | 0 mm | - | - | - |
| 1777934398 | 27.78° C | 39% | 994.6 hPa | 0 mm | - | - | - |
| 1777933206 | 27.78° C | 39% | 994.9 hPa | 0 mm | - | - | - |
| 1777932606 | 27.22° C | 42% | 995 hPa | 0 mm | - | - | - |
| 1777931997 | 27.22° C | 39% | 995.1 hPa | 0 mm | - | - | - |
| 1777931399 | 27.22° C | 41% | 995 hPa | 0 mm | - | - | - |
| 1777931040 | 27.22° C | 41% | 995.1 hPa | 0 mm | - | - | - |
| 1777930801 | 27.22° C | 41% | 995.1 hPa | 0 mm | - | - | - |
| 1777930197 | 27.22° C | 36% | 995.1 hPa | 0 mm | - | - | - |
| 1777929606 | 27.22° C | 36% | 995.1 hPa | 0 mm | - | - | - |
| 1777929283 | 27.78° C | 36% | 995 hPa | 0 mm | - | - | - |
| 1777929003 | 27.78° C | 36% | 995 hPa | 0 mm | - | - | - |
| 1777928401 | 27.22° C | 36% | 995.1 hPa | 0 mm | - | - | - |
| 1777927862 | 27.78° C | 36% | 995.1 hPa | 0 mm | - | - | - |
| 1777927802 | 27.78° C | 36% | 995.1 hPa | 0 mm | - | - | - |
| 1777926611 | 28.33° C | 37% | 995.4 hPa | 0 mm | - | - | - |
| 1777925400 | 27.78° C | 36% | 995.6 hPa | 0 mm | - | - | - |
* Rain since midnight (hover to see other rain measurements)
** Current wind speed in m/s (hover to see current wind gust speed)